Location: Unspecified
(0.0000°N, 0.0000°E)
Time: 20:14:18
(UTC+00:00)

STARLINK-32799 - Pass Details

Date: 09 March 2026
Orbit: 482 x 484 km, 43.0° (Epoch: 11 April)

Event Time Altitude Azimuth Distance (km) Brightness Sun altitude
Rises 19:31:38 0° 249° (WSW) 2,537 ? -20.2°
Reaches altitude 10° 19:34:16 10° 267° (W) 1,653 ? -20.9°
Maximum altitude 19:37:02 19° 315° (NW) 1,178 ? -21.6°
Enters shadow 19:39:11 13° 355° (N) 1,479 ? -22.1°
